QPF
0.00 0.00 0.00 0.00 0.00 0.00 0.00 0.00 0.00 0.00 0.00 0.00 0.00 0.00 0.00 0.00 0.00 0.00 0.00 0.00 0.00 0.00 0.00 0.00 0.00 0.00 0.00 0.00 0.00 0.00 0.00 0.00 0.00 0.00 0.00 0.00 0.00 0.00 0.00 0.00 0.00 0.00 0.00 0.00 0.00 0.00 0.00
0.00 0.00 0.00 0.00 0.00 0.00 0.00 0.00 0.00 0.00 0.00 0.00 0.00 0.00 0.00 0.00 0.00 0.00 0.00 0.00 0.00 0.00 0.00 0.00 0.00 0.00 0.00 0.00 0.00 0.00 0.00 0.00 0.00 0.00 0.00 0.00 0.00 0.00 0.00 0.00 0.00 0.00 0.00 0.00 0.00 0.00 0.00
0.00 0.00 0.00 0.00 0.00 0.00 0.00 0.00 0.00 0.00 0.00 0.00 0.00 0.00 0.00 0.00 0.00 0.00 0.00 0.00 0.00 0.00 0.00 0.00 0.00 0.00 0.00 0.00 0.00 0.00 0.00 0.00 0.00 0.00 0.00 0.00 0.00 0.00 0.00 0.00 0.00 0.00 0.00 0.00 0.00 0.00 0.00
0.00 0.00 0.00 0.00 0.00 0.00 0.00 0.00 0.00 0.00 0.00 0.00 0.00 0.00 0.00 0.00 0.00 0.00 0.00 0.00 0.00 0.00 0.00 0.00 0.00 0.00 0.00 0.00 0.00 0.00 0.00 0.00 0.00 0.00 0.00 0.00 0.00 0.00 0.00 0.00 0.00 0.00 0.00 0.00 0.00 0.00 0.00
0.00 0.00 0.00 0.00 0.00 0.00 0.00 0.00 0.00 0.00 0.00 0.00 0.00 0.00 0.00 0.00 0.00 0.00 0.00 0.00 0.00 0.00 0.00 0.00 0.00 0.00 0.00 0.00 0.00 0.00 0.00 0.00 0.00 0.00 0.00 0.00 0.00 0.00 0.00 0.00 0.00 0.00 0.00 0.00 0.00 0.00 0.00
0.00 0.00 0.00 0.00 0.00 0.00 0.00 0.00 0.00 0.00 0.00 0.00 0.00 0.00 0.00 0.00 0.00 0.00 0.00 0.00 0.00 0.00 0.00 0.00 0.00 0.00 0.00 0.00 0.00 0.00 0.00 0.00 0.00 0.00 0.00 0.00 0.00 0.00 0.00 0.00 0.00 0.00 0.00 0.00 0.00 0.00 0.00
0.00 0.00 0.00 0.00 0.00 0.00 0.00 0.00 0.00 0.00 0.00 0.00 0.00 0.00 0.00 0.00 0.00 0.00 0.00 0.00 0.00 0.00 0.00 0.00 0.00 0.00 0.00 0.00 0.00 0.00 0.00 0.00 0.00 0.00 0.00 0.00 0.00 0.00 0.00 0.00 0.00 0.00 0.00 0.00 0.00 0.00 0.00
0.00 0.00 0.00 0.00 0.00 0.00 0.00 0.00 0.00 0.00 0.00 0.00 0.00 0.00 0.00 0.00 0.00 0.00 0.00 0.00 0.00 0.00 0.00 0.00 0.00 0.00 0.00 0.00 0.00 0.00 0.00 0.00 0.00 0.00 0.00 0.00 0.00 0.00 0.00 0.00 0.00 0.00 0.00 0.00 0.00 0.00 0.00
0.00 0.00 0.00 0.00 0.00 0.00 0.00 0.00 0.00 0.00 0.00 0.00 0.00 0.00 0.00 0.00 0.00 0.00 0.00 0.00 0.00 0.00 0.00 0.00 0.00 0.00 0.00 0.00 0.00 0.00 0.00 0.00 0.00 0.00 0.00 0.00 0.00 0.00 0.00 0.00 0.00 0.00 0.00 0.00 0.00 0.00 0.00
0.00 0.00 0.00 0.00 0.00 0.00 0.00 0.00 0.00 0.00 0.00 0.00 0.00 0.00 0.00 0.00 0.00 0.00 0.00 0.00 0.00 0.00 0.00 0.00 0.00 0.00 0.00 0.00 0.00 0.00 0.00 0.00 0.00 0.00 0.00 0.00 0.00 0.00 0.00 0.00 0.00 0.00 0.00 0.00 0.00 0.00 0.00
0.00 0.00 0.00 0.00 0.00 0.00 0.00 0.00 0.00 0.00 0.00 0.00 0.00 0.00 0.00 0.00 0.00 0.00 0.00 0.00 0.00 0.00 0.00 0.00 0.00 0.00 0.00 0.00 0.00 0.00 0.00 0.00 0.00 0.00 0.00 0.00 0.00 0.00 0.00 0.00 0.00 0.00 0.00 0.00 0.00 0.00 0.00
0.00 0.00 0.00 0.00 0.00 0.00 0.00 0.00 0.00 0.00 0.00 0.00 0.00 0.00 0.00 0.00 0.00 0.00 0.00 0.00 0.00 0.00 0.00 0.00 0.00 0.00 0.00 0.00 0.00 0.00 0.00 0.00 0.00 0.00 0.00 0.00 0.00 0.00 0.00 0.00 0.00 0.00 0.00 0.00 0.00 0.00 0.00
0.01 0.01 0.00 0.00 0.00 0.00 0.00 0.00 0.00 0.00 0.00 0.00 0.00 0.00 0.00 0.00 0.00 0.00 0.00 0.00 0.00 0.00 0.00 0.00 0.00 0.00 0.00 0.00 0.00 0.00 0.00 0.00 0.00 0.00 0.00 0.00 0.00 0.00 0.00 0.00 0.00 0.00 0.00 0.00 0.00 0.00 0.00
0.03 0.00 0.00 0.00 0.00 0.00 0.00 0.00 0.00 0.00 0.00 0.00 0.00 0.00 0.00 0.00 0.00 0.00 0.00 0.00 0.00 0.00 0.00 0.00 0.00 0.00 0.00 0.00 0.00 0.00 0.00 0.00 0.00 0.00 0.00 0.00 0.00 0.00 0.00 0.00 0.00 0.00 0.00 0.00 0.00 0.00 0.00
0.13 0.09 0.04 0.01 0.00 0.00 0.00 0.00 0.00 0.00 0.00 0.00 0.00 0.00 0.00 0.00 0.00 0.00 0.00 0.00 0.00 0.00 0.00 0.00 0.00 0.00 0.00 0.00 0.00 0.00 0.00 0.00 0.00 0.00 0.00 0.00 0.00 0.00 0.00 0.00 0.00 0.00 0.00 0.00 0.00 0.00 0.00
0.02 0.03 0.03 0.03 0.01 0.01 0.00 0.00 0.00 0.00 0.00 0.00 0.00 0.00 0.00 0.00 0.00 0.00 0.00 0.00 0.00 0.00 0.00 0.00 0.00 0.00 0.00 0.00 0.00 0.00 0.00 0.00 0.00 0.00 0.00 0.00 0.00 0.00 0.00 0.00 0.00 0.00 0.00 0.00 0.00 0.00 0.00
0.01 0.01 0.02 0.05 0.07 0.06 0.02 0.00 0.00 0.00 0.00 0.00 0.00 0.00 0.00 0.00 0.00 0.00 0.00 0.00 0.00 0.00 0.00 0.00 0.00 0.00 0.00 0.00 0.00 0.00 0.00 0.00 0.00 0.00 0.00 0.00 0.00 0.00 0.00 0.00 0.00 0.00 0.00 0.00 0.00 0.00 0.00
0.00 0.01 0.03 0.02 0.04 0.06 0.06 0.05 0.01 0.00 0.00 0.00 0.00 0.00 0.00 0.00 0.00 0.00 0.00 0.00 0.00 0.00 0.00 0.00 0.00 0.00 0.00 0.00 0.00 0.00 0.00 0.00 0.00 0.01 0.00 0.00 0.00 0.00 0.00 0.00 0.00 0.00 0.00 0.00 0.00 0.00 0.00
0.00 0.00 0.01 0.02 0.03 0.05 0.04 0.04 0.03 0.02 0.00 0.00 0.01 0.00 0.00 0.00 0.00 0.00 0.00 0.00 0.00 0.00 0.00 0.00 0.00 0.00 0.00 0.00 0.01 0.00 0.00 0.00 0.00 0.01 0.01 0.00 0.01 0.00 0.00 0.00 0.00 0.00 0.00 0.00 0.00 0.00 0.00
0.00 0.00 0.00 0.00 0.02 0.03 0.03 0.03 0.03 0.02 0.03 0.03 0.03 0.02 0.00 0.00 0.00 0.00 0.00 0.00 0.00 0.00 0.00 0.00 0.00 0.00 0.00 0.00 0.00 0.00 0.00 0.00 0.00 0.01 0.01 0.01 0.00 0.00 0.00 0.00 0.00 0.00 0.00 0.00 0.00 0.00 0.00
0.00 0.00 0.00 0.00 0.01 0.01 0.02 0.03 0.05 0.07 0.07 0.04 0.03 0.03 0.00 0.00 0.00 0.00 0.00 0.00 0.00 0.00 0.00 0.00 0.00 0.00 0.00 0.00 0.00 0.00 0.00 0.00 0.00 0.00 0.00 0.01 0.01 0.00 0.00 0.00 0.00 0.00 0.00 0.00 0.00 0.00 0.00
0.00 0.00 0.00 0.01 0.01 0.01 0.02 0.03 0.07 0.08 0.06 0.03 0.05 0.03 0.02 0.01 0.00 0.00 0.00 0.00 0.00 0.00 0.00 0.00 0.00 0.00 0.00 0.00 0.00 0.00 0.00 0.00 0.00 0.00 0.00 0.00 0.00 0.00 0.00 0.00 0.00 0.00 0.00 0.00 0.00 0.00 0.00
0.00 0.00 0.00 0.01 0.03 0.05 0.06 0.06 0.04 0.04 0.03 0.03 0.03 0.03 0.05 0.08 0.02 0.02 0.01 0.00 0.00 0.00 0.01 0.00 0.00 0.00 0.00 0.00 0.00 0.00 0.00 0.00 0.00 0.00 0.00 0.00 0.00 0.00 0.00 0.00 0.00 0.00 0.00 0.00 0.00 0.00 0.00
0.00 0.00 0.00 0.01 0.02 0.02 0.01 0.01 0.01 0.01 0.01 0.02 0.03 0.05 0.07 0.05 0.02 0.01 0.02 0.01 0.01 0.01 0.02 0.00 0.00 0.00 0.00 0.00 0.00 0.00 0.00 0.00 0.00 0.00 0.00 0.00 0.00 0.01 0.00 0.00 0.00 0.00 0.00 0.00 0.00 0.00 0.00
0.00 0.00 0.00 0.00 0.02 0.02 0.00 0.00 0.00 0.00 0.00 0.00 0.00 0.00 0.01 0.02 0.01 0.01 0.02 0.02 0.01 0.01 0.01 0.00 0.00 0.00 0.00 0.01 0.03 0.01 0.00 0.00 0.00 0.00 0.00 0.00 0.00 0.00 0.00 0.00 0.00 0.00 0.00 0.00 0.00 0.00 0.00
0.00 0.00 0.00 0.00 0.00 0.04 0.02 0.01 0.00 0.00 0.01 0.00 0.00 0.02 0.06 0.08 0.03 0.01 0.00 0.00 0.00 0.00 0.01 0.01 0.00 0.00 0.01 0.03 0.03 0.02 0.00 0.00 0.00 0.00 0.00 0.00 0.00 0.00 0.00 0.00 0.00 0.00 0.00 0.00 0.00 0.00 0.00
0.00 0.00 0.00 0.00 0.00 0.01 0.02 0.00 0.00 0.01 0.02 0.00 0.00 0.00 0.01 0.02 0.00 0.00 0.00 0.00 0.00 0.01 0.03 0.01 0.02 0.04 0.04 0.04 0.03 0.02 0.01 0.00 0.00 0.00 0.00 0.00 0.00 0.00 0.00 0.01 0.00 0.00 0.00 0.00 0.00 0.00 0.00
0.00 0.00 0.00 0.00 0.00 0.00 0.01 0.01 0.01 0.01 0.06 0.02 0.01 0.01 0.01 0.02 0.02 0.00 0.00 0.00 0.00 0.01 0.03 0.03 0.04 0.03 0.02 0.04 0.04 0.02 0.01 0.00 0.00 0.00 0.00 0.00 0.01 0.01 0.01 0.02 0.01 0.00 0.00 0.00 0.00 0.00 0.00
0.00 0.00 0.00 0.00 0.00 0.00 0.01 0.02 0.02 0.03 0.09 0.02 0.03 0.07 0.12 0.13 0.06 0.00 0.00 0.00 0.00 0.01 0.04 0.04 0.04 0.01 0.02 0.03 0.03 0.04 0.02 0.00 0.00 0.00 0.00 0.00 0.00 0.00 0.00 0.00 0.00 0.00 0.00 0.00 0.00 0.00 0.00
MSLP
1020.07 1020.02 1019.94 1019.98 1019.95 1019.89 1019.79 1019.60 1019.39 1019.18 1018.93 1018.78 1018.61 1018.34 1018.18 1018.06 1017.90 1017.80 1017.75 1017.65 1017.75 1017.83 1017.71 1017.59 1017.54 1017.39 1017.25 1017.27 1018.42 1018.02 1017.44 1016.87 1016.16 1015.56 1015.24 1014.97 1014.78 1014.52 1014.79 1015.60 1016.74 1018.20 1019.71 1020.67 1021.49 1022.07 1023.14
1020.14 1020.21 1020.12 1020.13 1020.07 1019.96 1019.87 1019.76 1019.57 1019.36 1019.16 1018.94 1018.75 1018.56 1018.35 1018.26 1018.18 1018.10 1018.09 1018.10 1018.08 1017.98 1017.81 1017.59 1017.50 1017.44 1017.31 1017.92 1018.58 1018.06 1017.50 1016.96 1016.41 1015.76 1015.58 1015.25 1014.97 1014.83 1015.27 1016.31 1017.20 1018.76 1020.24 1021.27 1022.06 1022.80 1023.94
1020.11 1020.10 1020.21 1020.30 1020.25 1020.13 1019.99 1019.89 1019.72 1019.53 1019.36 1019.11 1018.88 1018.70 1018.51 1018.42 1018.32 1018.31 1018.28 1018.27 1018.23 1018.04 1017.88 1017.70 1017.45 1016.98 1017.54 1019.03 1018.52 1018.14 1017.33 1017.05 1016.67 1016.18 1016.20 1015.91 1015.68 1015.64 1016.28 1017.66 1018.58 1019.57 1020.88 1021.75 1022.51 1023.28 1024.29
1020.15 1020.10 1020.09 1020.23 1020.26 1020.20 1020.09 1019.99 1019.86 1019.67 1019.49 1019.32 1019.14 1018.85 1018.70 1018.58 1018.56 1018.55 1018.52 1018.38 1018.28 1018.08 1017.89 1017.72 1017.53 1017.16 1018.27 1018.91 1018.68 1018.43 1017.66 1017.24 1017.03 1016.89 1016.93 1016.70 1016.32 1016.66 1017.25 1018.34 1019.31 1019.83 1020.92 1021.79 1022.75 1023.41 1024.65
1020.10 1020.15 1020.08 1020.18 1020.20 1020.21 1020.17 1020.07 1019.99 1019.83 1019.56 1019.42 1019.31 1019.10 1018.76 1018.73 1018.61 1018.55 1018.49 1018.34 1018.19 1018.06 1017.87 1017.69 1017.61 1017.23 1018.56 1018.80 1018.91 1018.89 1018.53 1018.05 1017.46 1017.25 1017.07 1017.06 1017.22 1017.75 1018.40 1018.94 1019.71 1019.97 1020.42 1021.33 1022.96 1023.51 1024.33
1019.94 1020.11 1020.10 1020.07 1020.14 1020.18 1020.27 1020.15 1020.05 1019.99 1019.74 1019.49 1019.42 1019.29 1018.94 1018.82 1018.81 1018.76 1018.75 1018.52 1018.18 1017.96 1017.50 1017.25 1017.32 1018.00 1018.93 1019.35 1019.49 1019.18 1018.91 1018.51 1017.94 1017.55 1017.52 1017.55 1017.90 1018.56 1019.14 1019.47 1020.20 1020.31 1020.78 1021.26 1022.43 1023.78 1024.53
1019.74 1019.93 1020.08 1020.16 1020.13 1020.11 1020.18 1020.18 1020.09 1020.08 1019.98 1019.68 1019.46 1019.38 1019.19 1018.87 1018.91 1018.92 1018.73 1018.53 1018.74 1018.37 1018.41 1018.71 1018.85 1019.17 1019.54 1019.77 1019.38 1019.48 1019.35 1018.85 1018.22 1018.07 1018.12 1018.53 1019.04 1019.86 1020.64 1021.12 1021.30 1021.25 1021.25 1021.88 1022.96 1024.09 1025.07
1019.40 1019.63 1019.83 1019.97 1020.10 1020.09 1020.17 1020.18 1019.97 1019.91 1019.91 1019.73 1019.53 1019.33 1019.32 1019.05 1018.93 1018.89 1018.79 1018.51 1019.29 1019.41 1019.30 1019.43 1019.37 1019.77 1020.07 1020.17 1019.76 1020.06 1019.73 1019.13 1018.71 1018.85 1019.06 1019.32 1020.31 1021.46 1021.70 1021.97 1022.07 1022.22 1022.60 1023.14 1023.88 1024.66 1025.57
1019.28 1019.53 1019.73 1019.87 1019.94 1020.03 1020.15 1020.21 1020.12 1019.92 1019.84 1019.69 1019.46 1019.33 1019.34 1019.31 1018.97 1018.92 1018.87 1019.36 1019.43 1019.29 1019.24 1019.74 1019.96 1020.05 1020.49 1020.41 1020.83 1020.96 1020.55 1019.90 1019.50 1019.64 1019.86 1020.40 1021.85 1022.32 1022.51 1022.82 1023.01 1023.38 1023.69 1024.28 1025.01 1025.42 1025.65
1018.98 1019.32 1019.54 1019.75 1019.91 1020.08 1020.21 1020.27 1020.25 1020.11 1020.00 1019.78 1019.57 1019.43 1019.39 1019.25 1019.45 1019.03 1019.08 1019.43 1019.27 1019.24 1019.44 1020.29 1020.14 1020.70 1020.77 1020.69 1021.44 1021.61 1021.39 1021.17 1020.49 1020.59 1020.94 1021.98 1022.96 1023.02 1023.21 1023.78 1024.08 1024.48 1025.03 1025.47 1026.09 1026.77 1026.96
1018.50 1018.90 1019.11 1019.36 1019.59 1019.89 1020.13 1020.31 1020.34 1020.30 1020.27 1020.10 1019.84 1019.64 1019.52 1019.25 1019.21 1019.29 1019.67 1019.49 1019.41 1019.41 1019.81 1020.12 1020.54 1020.94 1020.73 1021.27 1021.90 1021.96 1021.89 1021.18 1021.20 1021.70 1022.14 1023.07 1023.55 1023.84 1024.18 1024.40 1024.66 1025.53 1026.01 1026.50 1026.95 1027.60 1028.11
1017.85 1018.32 1018.68 1018.90 1019.16 1019.63 1019.80 1020.11 1020.29 1020.22 1020.20 1020.29 1020.10 1019.99 1019.75 1019.38 1019.21 1019.96 1019.90 1019.78 1019.73 1019.80 1019.39 1020.03 1020.48 1020.69 1020.75 1021.12 1021.78 1022.02 1021.83 1021.85 1021.97 1022.34 1022.82 1023.79 1024.19 1024.31 1024.74 1025.47 1025.73 1026.34 1026.60 1027.16 1027.76 1028.46 1028.65
1017.23 1017.79 1018.07 1018.46 1018.79 1019.19 1019.65 1019.85 1020.11 1020.20 1020.20 1020.13 1020.35 1020.36 1020.01 1019.93 1020.07 1019.95 1019.96 1020.01 1020.11 1019.36 1019.01 1020.02 1020.17 1020.63 1020.77 1021.24 1021.62 1021.95 1022.26 1022.28 1022.43 1022.95 1023.59 1024.52 1024.89 1025.38 1025.53 1025.99 1026.52 1026.72 1027.09 1027.97 1028.85 1029.34 1028.39
1016.66 1017.13 1017.47 1017.93 1018.32 1018.65 1019.11 1019.56 1019.95 1020.09 1020.22 1020.08 1020.26 1020.50 1020.85 1020.84 1020.68 1020.21 1020.16 1020.10 1019.99 1018.53 1019.04 1019.91 1020.31 1020.74 1020.92 1021.25 1021.73 1021.93 1022.03 1022.16 1022.24 1022.95 1023.47 1024.34 1025.29 1025.41 1025.78 1025.89 1026.13 1026.68 1026.96 1027.83 1028.53 1028.94 1028.99
1015.87 1016.32 1016.69 1017.34 1017.73 1018.24 1018.76 1019.00 1019.64 1019.78 1020.17 1020.15 1020.21 1020.70 1020.82 1021.48 1021.18 1020.82 1020.65 1020.37 1019.27 1019.21 1019.42 1019.94 1020.69 1021.00 1021.38 1021.89 1022.52 1022.52 1022.34 1021.89 1021.67 1022.64 1023.79 1024.05 1025.41 1026.14 1026.49 1026.49 1026.94 1026.99 1027.67 1028.07 1028.93 1028.98 1029.45
1015.33 1015.68 1016.13 1016.65 1017.17 1017.88 1018.36 1018.74 1019.31 1019.66 1020.09 1020.22 1020.31 1020.77 1021.64 1021.79 1021.48 1021.15 1020.91 1020.13 1019.67 1019.87 1020.07 1020.28 1020.57 1020.43 1020.75 1021.92 1022.65 1022.79 1022.10 1021.78 1022.65 1023.03 1023.75 1024.41 1025.90 1026.75 1027.64 1027.82 1027.97 1028.32 1028.58 1029.12 1029.62 1030.06 1029.70
1015.40 1015.30 1015.52 1015.95 1016.58 1017.30 1017.85 1018.66 1019.01 1019.58 1019.99 1020.30 1020.54 1021.25 1022.24 1021.88 1021.83 1021.53 1021.05 1020.22 1019.95 1020.32 1020.85 1021.35 1021.09 1020.91 1021.01 1021.57 1022.38 1022.86 1022.19 1022.60 1023.03 1024.15 1024.60 1025.02 1025.89 1027.63 1028.31 1028.17 1027.77 1028.93 1029.05 1029.37 1029.76 1029.94 1030.09
1015.35 1015.19 1015.14 1015.39 1015.95 1016.72 1017.46 1018.28 1018.93 1019.65 1020.05 1020.55 1021.07 1022.01 1022.41 1022.17 1022.27 1021.51 1021.09 1020.67 1020.91 1020.89 1021.35 1021.67 1021.93 1021.72 1021.70 1021.97 1022.78 1023.17 1023.02 1023.61 1023.98 1024.84 1025.47 1025.70 1026.34 1027.34 1027.48 1028.00 1028.24 1028.42 1028.51 1028.82 1029.34 1029.84 1030.09
1015.17 1015.03 1015.02 1014.96 1015.49 1016.13 1016.92 1017.85 1018.55 1019.44 1019.85 1020.55 1021.59 1022.57 1022.72 1022.41 1022.15 1021.58 1021.31 1021.25 1021.26 1021.51 1021.79 1022.09 1022.09 1022.23 1022.91 1023.12 1023.74 1023.55 1024.04 1025.07 1025.10 1025.59 1026.09 1026.63 1026.92 1027.48 1028.06 1028.78 1028.75 1028.80 1028.42 1028.63 1029.13 1029.69 1029.40
1014.97 1014.87 1014.87 1014.79 1014.92 1015.75 1016.49 1017.25 1018.40 1019.11 1019.91 1020.69 1022.14 1022.74 1023.10 1022.75 1022.20 1021.66 1021.30 1021.45 1021.53 1021.51 1021.98 1022.29 1022.66 1022.96 1023.82 1024.09 1024.50 1024.80 1025.36 1026.25 1026.27 1026.38 1026.98 1027.22 1027.70 1027.33 1027.26 1027.42 1027.83 1028.59 1027.89 1028.06 1028.59 1029.01 1027.97
1014.75 1014.63 1014.23 1013.92 1014.33 1015.50 1016.23 1016.96 1018.09 1019.00 1019.91 1020.83 1021.94 1022.00 1022.02 1022.70 1022.06 1021.79 1021.88 1021.97 1021.68 1021.90 1022.60 1022.70 1023.25 1023.61 1024.06 1025.03 1025.38 1025.71 1026.30 1027.32 1027.71 1027.47 1028.09 1028.50 1028.35 1028.00 1027.61 1027.63 1028.08 1028.15 1028.01 1027.93 1027.95 1027.01 1026.95
1014.56 1014.38 1013.73 1013.20 1013.97 1014.95 1015.98 1016.92 1017.79 1018.98 1020.04 1021.10 1021.58 1022.02 1022.50 1022.38 1021.90 1021.85 1022.14 1022.26 1021.80 1021.79 1022.79 1023.33 1023.63 1023.83 1024.70 1025.49 1025.27 1025.96 1026.93 1027.99 1028.00 1028.52 1029.19 1029.88 1029.28 1029.05 1028.48 1028.39 1028.75 1028.17 1027.97 1027.86 1027.28 1026.98 1026.51
1014.69 1014.36 1013.70 1013.37 1013.90 1014.50 1015.51 1016.80 1017.75 1018.45 1019.26 1020.67 1021.71 1022.05 1021.49 1022.17 1022.57 1022.47 1021.95 1021.41 1021.86 1022.45 1022.89 1023.43 1023.74 1024.60 1025.40 1025.89 1026.61 1027.27 1027.33 1028.09 1028.39 1028.64 1029.54 1030.17 1030.24 1030.13 1029.14 1029.34 1029.49 1027.68 1026.77 1026.55 1026.04 1025.78 1026.15
1014.63 1014.52 1014.10 1014.02 1014.17 1014.93 1015.63 1016.52 1017.30 1017.95 1018.52 1019.61 1020.37 1021.46 1021.69 1021.75 1022.21 1022.06 1021.37 1021.47 1021.93 1022.48 1023.72 1024.58 1024.96 1025.34 1026.57 1027.08 1027.90 1028.36 1028.85 1029.18 1029.32 1029.62 1029.53 1030.04 1030.39 1030.71 1030.09 1030.33 1028.68 1025.44 1025.21 1025.88 1026.57 1026.60 1027.24
1014.63 1014.48 1014.46 1015.17 1014.65 1014.79 1015.75 1016.09 1016.93 1017.61 1018.47 1019.59 1019.91 1020.38 1021.06 1021.38 1021.70 1021.90 1021.85 1022.02 1022.73 1023.49 1024.69 1025.65 1026.73 1026.98 1026.78 1027.16 1028.23 1028.72 1029.36 1029.69 1030.02 1030.48 1030.79 1030.66 1030.30 1030.59 1030.38 1029.54 1026.42 1026.07 1026.68 1027.17 1027.84 1028.93 1030.01
1014.50 1014.71 1014.65 1014.90 1014.64 1015.11 1015.29 1015.69 1016.32 1017.20 1018.22 1019.49 1019.85 1019.86 1020.76 1021.43 1021.59 1021.69 1021.88 1022.18 1023.05 1024.25 1025.62 1026.85 1027.79 1027.64 1027.62 1027.34 1027.68 1027.93 1028.01 1027.85 1029.48 1030.68 1031.25 1031.29 1030.74 1030.74 1030.65 1030.16 1028.52 1027.45 1027.82 1028.20 1028.74 1030.76 1031.56
1014.49 1014.43 1014.33 1014.39 1014.54 1014.77 1015.13 1015.52 1015.58 1016.74 1017.55 1018.93 1019.70 1019.70 1020.51 1021.51 1022.14 1022.31 1022.87 1023.07 1023.22 1024.19 1025.84 1027.50 1028.11 1028.51 1028.29 1027.52 1027.23 1026.74 1026.43 1026.58 1027.68 1028.88 1030.59 1031.01 1031.05 1030.58 1030.52 1030.01 1028.54 1028.32 1028.98 1029.62 1031.16 1032.57 1032.70
1013.99 1013.79 1013.71 1014.08 1014.26 1014.49 1014.56 1014.97 1015.27 1016.12 1017.16 1018.13 1020.36 1020.39 1020.38 1021.40 1023.07 1023.79 1023.97 1024.47 1024.66 1024.78 1025.98 1027.57 1028.10 1028.07 1028.19 1027.52 1026.72 1025.89 1025.56 1025.56 1026.26 1026.99 1028.10 1028.73 1029.58 1030.13 1030.69 1030.99 1030.21 1029.78 1030.75 1031.55 1032.66 1032.57 1033.22
1013.49 1013.20 1013.54 1013.62 1013.67 1013.99 1014.14 1014.27 1014.81 1015.55 1016.41 1017.96 1020.11 1020.91 1020.88 1022.04 1024.68 1025.09 1025.46 1026.02 1026.05 1026.15 1026.17 1026.88 1026.37 1026.35 1026.41 1026.54 1025.99 1025.41 1025.21 1025.64 1025.83 1026.52 1027.09 1027.93 1027.53 1028.35 1029.01 1029.74 1030.55 1031.38 1032.28 1033.05 1033.43 1033.44 1033.58
Thickness
5638 5638 5638 5638 5637 5637 5637 5637 5637 5637 5638 5638 5639 5639 5639 5638 5637 5636 5636 5635 5632 5630 5630 5630 5630 5631 5632 5630 5618 5623 5628 5633 5638 5644 5644 5644 5642 5646 5639 5637 5628 5612 5605 5601 5598 5597 5591
5635 5634 5634 5634 5634 5634 5634 5633 5633 5634 5634 5635 5635 5636 5636 5635 5633 5631 5631 5629 5627 5627 5627 5629 5629 5629 5631 5623 5617 5620 5625 5629 5633 5638 5638 5641 5640 5644 5639 5630 5626 5612 5601 5596 5593 5589 5582
5631 5631 5630 5629 5630 5630 5631 5630 5630 5630 5630 5631 5631 5631 5632 5631 5629 5627 5626 5625 5624 5624 5625 5626 5627 5630 5623 5610 5615 5618 5624 5625 5628 5632 5628 5633 5635 5634 5627 5612 5612 5603 5590 5588 5586 5582 5573
5626 5627 5627 5625 5625 5626 5626 5627 5627 5627 5626 5626 5626 5627 5627 5626 5625 5623 5621 5621 5621 5622 5622 5623 5624 5627 5612 5611 5611 5613 5618 5621 5623 5624 5622 5623 5628 5621 5617 5610 5601 5598 5590 5582 5579 5577 5565
5622 5622 5622 5621 5621 5621 5621 5621 5622 5622 5623 5621 5621 5622 5622 5622 5621 5619 5619 5619 5618 5618 5619 5619 5620 5622 5608 5609 5607 5606 5608 5610 5616 5617 5618 5619 5615 5608 5605 5596 5590 5595 5589 5590 5567 5573 5569
5618 5617 5617 5617 5617 5616 5615 5615 5615 5616 5617 5617 5616 5616 5617 5617 5616 5614 5613 5614 5615 5616 5618 5618 5618 5611 5603 5599 5598 5600 5602 5603 5607 5610 5608 5608 5603 5595 5594 5591 5584 5589 5586 5591 5570 5561 5562
5613 5612 5612 5612 5611 5611 5610 5610 5610 5609 5610 5612 5611 5610 5610 5612 5611 5610 5611 5611 5609 5609 5605 5596 5597 5594 5592 5592 5596 5594 5594 5597 5602 5601 5597 5595 5589 5582 5567 5570 5572 5575 5580 5578 5563 5554 5545
5609 5608 5607 5606 5605 5605 5604 5604 5606 5605 5605 5606 5606 5606 5605 5606 5605 5605 5604 5607 5597 5596 5597 5593 5591 5586 5584 5583 5589 5583 5587 5594 5595 5587 5589 5588 5576 5562 5565 5566 5568 5566 5561 5562 5548 5545 5537
5602 5601 5600 5600 5599 5599 5598 5597 5598 5599 5599 5601 5602 5602 5600 5598 5599 5599 5599 5594 5590 5589 5593 5586 5582 5580 5574 5578 5569 5567 5575 5582 5584 5583 5582 5577 5557 5556 5559 5552 5550 5548 5546 5538 5526 5524 5529
5596 5594 5594 5594 5593 5592 5591 5589 5589 5590 5591 5593 5594 5594 5594 5594 5592 5593 5592 5586 5585 5584 5585 5576 5577 5569 5569 5570 5559 5560 5560 5563 5573 5571 5567 5553 5544 5546 5546 5534 5529 5539 5522 5517 5513 5497 5505
5592 5590 5589 5588 5587 5585 5584 5582 5582 5582 5582 5582 5584 5585 5586 5587 5586 5587 5581 5579 5577 5577 5576 5575 5566 5561 5563 5559 5551 5551 5551 5559 5562 5550 5550 5536 5527 5528 5533 5525 5523 5505 5507 5503 5501 5490 5482
5587 5585 5583 5583 5582 5579 5578 5576 5575 5575 5575 5573 5574 5574 5576 5578 5580 5572 5569 5569 5569 5575 5576 5562 5560 5559 5559 5556 5547 5545 5547 5545 5547 5541 5533 5521 5520 5526 5520 5507 5507 5497 5497 5493 5488 5471 5436
5583 5580 5580 5579 5578 5575 5572 5570 5569 5567 5567 5567 5564 5564 5566 5567 5567 5565 5562 5562 5566 5568 5573 5556 5556 5551 5556 5546 5541 5538 5535 5528 5525 5514 5516 5507 5503 5498 5502 5492 5490 5487 5484 5468 5459 5435 5459
5580 5578 5578 5576 5574 5573 5568 5565 5562 5560 5560 5560 5558 5554 5552 5552 5552 5555 5555 5561 5558 5583 5570 5546 5548 5543 5543 5540 5536 5529 5527 5524 5529 5520 5518 5498 5492 5488 5490 5490 5489 5473 5481 5454 5462 5469 5455
5578 5575 5575 5573 5573 5568 5564 5562 5557 5555 5552 5552 5550 5546 5545 5539 5541 5543 5547 5553 5563 5560 5553 5539 5532 5528 5528 5521 5508 5514 5513 5526 5532 5511 5495 5490 5482 5471 5472 5476 5469 5472 5455 5453 5409 5442 5426
5574 5574 5572 5570 5568 5563 5559 5555 5551 5547 5543 5543 5541 5538 5532 5530 5530 5533 5539 5550 5552 5540 5538 5536 5542 5538 5548 5511 5497 5498 5512 5523 5501 5499 5482 5485 5450 5455 5443 5448 5446 5436 5437 5420 5415 5402 5412
5568 5571 5570 5569 5564 5559 5555 5548 5545 5540 5536 5533 5531 5530 5518 5520 5520 5525 5529 5542 5540 5527 5522 5518 5530 5529 5531 5511 5496 5496 5512 5493 5486 5472 5468 5471 5456 5432 5427 5427 5436 5414 5401 5404 5401 5390 5386
5561 5565 5566 5565 5562 5556 5550 5543 5537 5531 5528 5523 5518 5520 5509 5511 5514 5522 5522 5526 5514 5512 5507 5501 5496 5505 5514 5509 5493 5490 5497 5477 5468 5455 5446 5451 5438 5417 5426 5411 5408 5403 5408 5401 5406 5394 5363
5555 5558 5560 5561 5558 5553 5547 5540 5534 5526 5523 5516 5506 5497 5497 5499 5506 5509 5511 5506 5500 5498 5494 5492 5492 5491 5477 5486 5468 5478 5472 5442 5449 5441 5441 5425 5422 5428 5412 5391 5391 5385 5391 5384 5357 5349 5347
5549 5552 5553 5555 5555 5548 5542 5536 5527 5520 5515 5508 5493 5489 5487 5488 5493 5497 5507 5500 5497 5491 5489 5487 5479 5471 5459 5458 5457 5444 5448 5427 5430 5428 5419 5411 5396 5415 5447 5411 5392 5370 5390 5383 5373 5333 5365
5543 5545 5550 5554 5551 5541 5536 5531 5521 5514 5507 5500 5491 5496 5490 5478 5486 5491 5488 5484 5492 5479 5469 5471 5465 5459 5448 5437 5442 5428 5433 5408 5404 5408 5395 5384 5378 5390 5392 5383 5372 5375 5381 5374 5359 5374 5367
5538 5540 5546 5551 5545 5537 5530 5522 5517 5507 5497 5489 5486 5485 5471 5474 5479 5480 5473 5467 5476 5479 5456 5452 5447 5449 5439 5427 5435 5417 5409 5393 5393 5386 5370 5354 5368 5355 5362 5365 5343 5343 5345 5345 5361 5356 5351
5528 5532 5537 5541 5537 5533 5526 5515 5508 5503 5496 5484 5473 5469 5477 5469 5454 5455 5461 5468 5460 5464 5454 5439 5437 5430 5424 5423 5400 5384 5384 5373 5378 5372 5361 5339 5345 5337 5363 5327 5316 5327 5339 5346 5358 5359 5348
5520 5522 5526 5527 5526 5520 5516 5510 5503 5498 5494 5485 5477 5467 5465 5475 5454 5455 5459 5459 5452 5446 5436 5414 5416 5416 5387 5378 5368 5361 5349 5344 5343 5335 5347 5338 5332 5322 5326 5302 5323 5371 5324 5329 5335 5343 5332
5513 5514 5515 5509 5514 5514 5506 5503 5497 5492 5484 5475 5471 5467 5460 5465 5455 5450 5444 5440 5427 5415 5402 5398 5382 5376 5376 5372 5360 5353 5340 5329 5320 5316 5312 5306 5325 5311 5304 5313 5359 5362 5310 5306 5313 5297 5245
5504 5504 5506 5504 5506 5502 5501 5497 5493 5486 5476 5467 5462 5459 5451 5452 5455 5444 5441 5429 5418 5404 5384 5369 5359 5361 5356 5362 5362 5358 5356 5362 5320 5296 5294 5291 5286 5293 5282 5291 5293 5305 5286 5274 5267 5258 5238
5496 5497 5500 5501 5500 5497 5494 5490 5490 5480 5473 5461 5455 5451 5444 5439 5427 5424 5424 5416 5412 5399 5378 5351 5343 5337 5337 5349 5349 5354 5360 5343 5329 5314 5277 5278 5275 5275 5279 5288 5290 5276 5264 5250 5267 5260 5212
5492 5495 5498 5495 5494 5492 5491 5486 5483 5474 5466 5459 5441 5438 5435 5429 5406 5399 5393 5396 5385 5387 5369 5343 5338 5333 5328 5334 5342 5347 5344 5332 5327 5314 5287 5283 5273 5260 5265 5263 5276 5247 5238 5255 5209 5198 5195
5489 5493 5491 5490 5491 5488 5486 5484 5477 5470 5463 5450 5433 5423 5419 5409 5386 5376 5369 5360 5355 5351 5354 5340 5349 5339 5334 5329 5331 5334 5335 5305 5317 5316 5290 5291 5298 5281 5277 5273 5224 5215 5201 5189 5183 5181 5177